Weather in Alboraya

Spain     39°29′58″N   0°20′47″E
temp.,
°C
wind,
m/s
gust,
m/s
humid.,
%
clouds,
%
prec.,
mm/h
press.,
hPa
HPBL,
m
20 april, tue
tue2023:00+14n4670100 0.0 1016249
02:00+14n4672100 0.0 1015268
05:00+13nnw3468100 0.0 1016159
08:00+13n336083 0.0 1015107
11:00+15ese1157100 0.0 1015203
14:00+15ene55715 0.0 1014343
17:00+15ene667899 0.4 1012382
20:00+15ne5585100 1.3 1013426
21 april, wed
wed2123:00+14nne348099 0.1 1014244
02:00+14wnw3281100 0.2 1014159
05:00+14nnw1180100 0.0 1012131
08:00+14ne338296 0.0 1012360
11:00+15ene3377100 0.0 1013435
14:00+14ene5484100 0.0 1013398
17:00+15ene4482100 0.0 1012343
20:00+15ne2284100 0.1 1012353
22 april, thu
thu2223:00+15nne4589100 0.4 1014339
02:00+14ne4491100 1.6 1013342
05:00+14e3393100 3.1 1012271
08:00+14ssw2393100 10.8 1012249
11:00+14ssw228870 1.4 1012231
14:00+15e4486100 1.9 1013349
17:00+15ne9990100 0.3 1013571
20:00+14ne5684100 0.3 1015488
23 april, fri
fri2323:00+14nne6789100 0.4 1018486
02:00+14nne678655 0.8 1018504
05:00+14nne348448 0.0 1017234
08:00+14nnw228171 0.0 1018213
11:00+15ene22735 0.0 1020467
14:00+15ese4475100 0.0 1019350
17:00+15ese4474100 0.0 1019339
20:00+15e3474100 0.0 1019427
24 april, sat
sat2423:00+15ne2278100 0.0 1020275
02:00+14nne3380100 0.0 1020243
05:00+14nne4580100 0.0 1019320
08:00+14nne458211 0.0 1019393
11:00+15ne557668 0.0 1020630
14:00+15ene77822 0.0 1019438
17:00+16ene5681100 0.0 1018512
20:00+15ne6781100 0.0 1018376